Flag for El Salvador Weather past 2 weeks in San Salvador, El Salvador

Now
84 °F

Passing clouds.


Feels Like: 91 °F
Forecast: N/A
Wind: 2 mph from Southeast

Location: San Salvador / Ilopango

Current Time: Oct 24, 2014 at 2:50:34 PM

Latest Report: Oct 24, 2014 at 1:50 PM


Visibility: N/A

Pressure: 29.89 "Hg

Humidity: 70%

Dew point: 73 °F

Location of San SalvadorLocation

Historic Weather in San Salvador — Graph

°F

San Salvador temperature yesterday

Maximum temperature yesterday: 79 °F (at 11:50 AM)
Minimum temperature yesterday: 68 °F (at 5:50 AM)
Average temperature yesterday: 74 °F

Past Weeks' High & Low Weather Summary

 TemperatureHumidityPressure
High86 °F (Oct 24, 12:50 PM)100% (Oct 9, 9:50 PM)30.07 "Hg (Oct 9, 9:50 PM)
Low66 °F (Oct 10, 5:50 AM)66% (Oct 10, 3:50 PM)29.83 "Hg (Oct 10, 3:50 PM)
Average75 °F88%29.95 "Hg
* Reported Oct 9 1:50 PM — Oct 24 1:50 PM, San Salvador, Weather by CustomWeather, © 2014

Note: Actual official high and low records may vary slightly from our data, if they occured in-between our weather recording intervals... More about our weather records

Advertising

San Salvador weather history for previous 24 hours

 ConditionsComfort  
Time TempWeatherWind HumidityBarometerVisibility
1:50 PM
Oct 24
84 °FPassing clouds.2 mph70%29.89 "HgN/A
12:50 PM86 °FScattered clouds.2 mph66%29.92 "HgN/A
11:50 AM82 °FScattered clouds.5 mph79%29.95 "HgN/A
10:50 AM82 °FPartly sunny.3 mph79%29.98 "HgN/A
9:50 AM81 °FPassing clouds.No wind79%29.98 "HgN/A
7:50 AM72 °FPassing clouds.No wind100%29.98 "HgN/A
6:50 AM70 °FPassing clouds.2 mph100%29.98 "HgN/A
5:50 AM70 °FPassing clouds.No wind94%29.95 "HgN/A
11:50 PM
Oct 23
70 °FClear.2 mph94%29.98 "Hg10 mi
10:50 PM70 °FClear.No wind94%29.98 "Hg10 mi
9:50 PM70 °FClear.No wind94%29.98 "Hg10 mi
9:00 PMN/A12 mphN/AN/AN/A
8:00 PM72 °FMild.6 mph94%29.95 "HgN/A
6:50 PM73 °FClear.7 mph89%29.95 "Hg10 mi
5:50 PM73 °FClear.2 mph89%29.92 "Hg10 mi
4:50 PM77 °FPassing clouds.5 mph83%29.89 "HgN/A
3:50 PM77 °FScattered clouds.5 mph83%29.92 "HgN/A
2:50 PM79 °FScattered clouds.5 mph79%29.92 "HgN/A
Weather by CustomWeather, © 2014

See weather overviewHow to use our weather pages